Regional Weather Roundup
Issued by NWS

Home | Current Version | Previous Version | Text Only | Print | Product List | Glossary On
Versions: 1 2 3 4 5 6 7 8 9 10 11 12 13 14 15 16 17 18 19 20 21 22 23 24 25 26 27 28 29 30 31 32 33 34 35 36 37 38 39 40 41 42 43 44 45 46 47 48 49 50
000
ASUS44 KMEG 211410
RWRTN
TENNESSEE HOURLY STATE WEATHER ROUNDUP
NATIONAL WEATHER SERVICE MEMPHIS TN
900 AM CDT SAT APR 21 2018

TNZ002-004-019-021-049-052-054-088>092-211500-
WEST TENNESSEE

CITY           SKY/WX    TMP DP  RH WIND       PRES   REMARKS
MEMPHIS INTL   FAIR      59  37  44 E7        30.25R
NWS MEMPHIS      N/A     58 N/A N/A MISG        N/A
JACKSON        FAIR      59  34  39 SE7       30.29S
DYERSBURG      FAIR      56  36  47 E7        30.29F
SOMERVILLE     SUNNY     59  36  41 CALM      30.25F
COVINGTON      SUNNY     57  37  47 SE7G13    30.28R
UNION CITY     SUNNY     57  34  41 SE10      30.29F
BOLIVAR        SUNNY     57  36  44 E6G13     30.27S
PARIS          SUNNY     57  34  41 SE8       30.31F
HUNTINGDON     SUNNY     57  36  44 E5        30.30F
LEXINGTON      SUNNY     57  36  44 VRB3      30.30S
SELMER         SUNNY     57  36  44 E8        30.28S
SAVANNAH       SUNNY     59  37  44 SE6       30.28F
$$

TNZ008-025-027-028-033-062-065-066-211500-
NORTH MIDDLE TENNESSEE

CITY           SKY/WX    TMP DP  RH WIND       PRES   REMARKS
NASHVILLE      FAIR      56  33  42 SE5       30.33F
PORTLAND       SUNNY     57  30  35 SE8       30.32F
CLARKSVILLE    FAIR      54  30  40 E8        30.33R
SMYRNA         FAIR      55  35  47 CALM      30.34S
COOKEVILLE     SUNNY     59  32  36 S7        30.33S
LIVINGSTON     SUNNY     57  28  33 CALM      30.33S
GALLATIN       SUNNY     57  32  38 SE6       30.36S
CROSSVILLE     FAIR      56  28  34 SE6       30.35S
ROCKWOOD       SUNNY     54  21  28 CALM      30.35S
$$

TNZ061-075-076-078-094-096-097-211500-
SOUTH MIDDLE TENNESSEE

CITY           SKY/WX    TMP DP  RH WIND       PRES   REMARKS
LEWISBURG      SUNNY     54  36  50 CALM      30.31S
FAYETTEVILLE   SUNNY     59  36  41 SE8G14    30.31S
TULLAHOMA      SUNNY     59  32  36 SE6G14    30.31F
WINCHESTER     SUNNY     61  34  36 SE9       30.31F
MCMINNVILLE    SUNNY     59  36  41 SE5       30.32F
COLUMBIA       SUNNY     52  41  66 CALM      30.31R
SHELBYVILLE    SUNNY     57  36  44 SE9       30.31F
$$

TNZ017-018-042-046-047-211500-
NORTHEAST TENNESSEE

CITY           SKY/WX    TMP DP  RH WIND       PRES   REMARKS
TRI CITIES     FAIR      54  32  43 VRB3      30.38F
ELIZABETHTON   FAIR      57  23  26 E7        30.38F
$$

TNZ012-013-036-069-073-074-211500-
CENTRAL EAST TENNESSEE

CITY           SKY/WX    TMP DP  RH WIND       PRES   REMARKS
KNOXVILLE      FAIR      54  32  43 N6        30.35S
OAK RIDGE      FAIR      56  27  32 VRB3      30.37S
DOWNTOWN KNOXV SUNNY     54  30  40 CALM      30.36F
GATLINBURG     SUNNY     52  32  46 CALM      30.36R
MORRISTOWN     SUNNY     55  30  38 E5        30.35S
JACKSBORO      SUNNY     54  25  32 CALM      30.40F
$$

TNZ083-085-099-211500-
SOUTHEAST TENNESSEE

CITY           SKY/WX    TMP DP  RH WIND       PRES   REMARKS
CHATTANOOGA    FAIR      57  37  47 N5        30.36S
DAYTON         SUNNY     55  36  47 VRB3      30.35S
$$

SKY/WX REPORTED AS FAIR MEANS FEW OR NO CLOUDS BELOW
12 THOUSAND FEET.




USA.gov is the U.S. government's official web portal to all federal, state and local government web resources and services.